Vorticity
4 2 3 12 5 10 7 8 1 4 1 5 6 4 2 2 10 2 12 7 1 1 -1 18 9 13 -5 14 20 9 7 -10 0 2 8 8 8 5 8 16 4 7 9 5
12 10 11 13 13 4 10 6 1 2 6 2 -2 8 4 8 3 10 5 7 17 10 19 22 16 8 14 12 9 -6 -9 -1 4 11 10 8 6 8 8 9 7 7 7 7
22 4 9 24 13 8 16 5 9 5 2 4 6 4 3 5 3 4 -1 4 5 11 7 -0 11 5 8 6 4 6 18 25 19 12 10 6 5 5 3 9 9 7 6 5
17 -12 22 6 -7 9 17 13 15 12 7 5 3 5 14 4 10 4 6 7 20 14 5 15 20 15 12 1 9 4 7 9 12 10 6 5 13 15 13 10 11 8 4 5
27 7 36 4 18 26 2 18 7 17 18 12 1 7 5 10 -2 7 8 7 3 9 9 8 4 1 18 7 12 12 17 7 9 7 7 9 13 11 10 10 11 11 11 11
9 12 21 4 18 3 25 26 7 1 41 23 16 23 -18 6 6 4 11 3 0 -1 5 11 8 4 7 13 -0 -2 11 12 11 6 3 8 8 8 8 9 9 8 10 1
-1 2 12 11 6 26 5 48 14 11 -3 8 14 16 -2 21 15 8 -7 6 7 1 9 -2 2 3 2 10 13 12 12 7 7 3 5 3 4 7 8 10 10 9 11 10
1 1 -11 5 7 9 10 27 46 18 -1 13 22 13 0 15 29 21 12 9 3 12 9 -3 -0 3 2 5 13 12 16 9 6 7 4 9 3 5 9 8 8 8 8 8
3 4 3 -3 4 18 17 14 18 33 -0 27 14 19 16 3 10 21 -4 22 18 2 21 -13 9 -2 15 6 10 10 5 8 11 3 7 8 10 5 5 6 6 7 8 9
5 2 6 2 3 13 8 -13 52 7 13 30 19 18 12 5 0 -0 3 14 21 29 23 17 11 12 -11 17 6 4 18 14 9 10 8 6 7 6 4 4 7 9 9 7
7 3 7 7 7 2 29 4 14 66 -23 32 1 25 23 10 4 10 8 10 5 -3 6 10 6 5 8 11 -5 4 0 -1 7 14 14 13 13 12 11 11 10 9 7 6
9 5 9 8 5 6 11 10 5 13 34 51 13 6 23 19 12 10 17 8 9 7 11 10 13 5 -2 9 4 16 16 12 4 6 17 8 4 5 7 8 7 7 7 7
24 21 17 12 8 5 10 13 15 21 6 36 24 0 -2 9 13 -11 14 25 8 12 3 7 6 6 1 22 -3 29 14 11 10 10 13 18 8 2 7 7 6 6 6 7
23 27 14 13 8 13 8 -11 12 16 3 17 54 12 -6 -11 -9 -12 7 12 3 10 13 25 -1 40 -13 17 -6 9 -3 -5 0 4 12 -9 5 3 14 11 8 7 8 7
2 28 17 4 -4 12 5 14 9 4 10 11 7 13 19 21 26 16 24 0 8 18 1 12 -7 48 9 27 29 22 0 3 6 6 8 7 11 13 12 12 12 6 7 10
14 15 8 5 11 18 22 9 16 13 1 3 9 8 6 3 3 4 -1 9 18 15 21 4 30 26 27 1 4 17 9 19 17 14 4 -2 12 8 -3 11 11 7 8 7
8 -2 4 20 16 8 13 8 9 6 3 2 5 5 6 8 7 5 5 6 6 5 4 2 3 -6 -22 -8 22 9 5 23 -9 10 5 -5 3 -3 0 4 1 0 -3 -6
16 5 27 18 13 4 13 8 12 9 2 8 14 14 19 15 12 14 18 16 13 15 23 5 1 13 19 8 15 1 16 14 13 7 6 2 6 5 -2 2 7 6 11 15
26 -5 17 14 2 11 20 9 11 11 12 5 -2 -0 -2 -10 4 9 8 4 4 5 9 12 17 15 12 5 2 -2 4 -2 1 6 7 4 6 10 15 16 17 18 11 6
18 10 3 10 40 -7 -7 5 19 17 -7 -4 18 8 4 3 9 9 5 7 9 14 20 20 20 14 8 8 11 12 10 13 12 12 15 18 17 9 4 4 6 6 7 7
-0 9 22 17 9 21 25 20 9 29 2 25 11 3 11 7 6 8 9 8 8 7 7 6 7 7 8 10 13 15 18 18 13 4 1 5 8 8 8 7 5 3 4 6
17 9 6 17 7 -4 3 9 11 9 7 8 6 7 14 17 17 17 15 15 16 16 11 9 8 7 6 5 3 3 7 9 8 6 5 4 4 4 4 6 9 12 15 18
19 7 7 22 23 31 30 30 31 31 27 22 16 12 7 6 4 5 5 6 7 8 9 10 10 9 7 6 5 4 3 2 4 1 4 8 8 11 14 19 23 26 27 24
12 20 12 14 8 8 8 6 5 5 6 6 6 6 5 7 7 7 9 7 6 4 3 2 0 2 3 3 5 7 7 5 8 13 16 20 25 28 28 26 22 19 19 20
7 7 7 6 6 6 6 5 4 4 4 4 4 3 3 2 3 2 3 3 3 4 5 6 7 9 10 11 12 15 19 23 27 30 30 25 20 17 17 15 16 18 18 18
4 4 3 2 1 2 2 2 2 2 2 2 3 3 4 6 6 7 9 10 11 12 12 13 16 18 21 25 29 33 32 25 19 14 13 12 14 17 19 21 21 19 18 18
2 2 2 2 2 3 3 3 4 6 7 8 9 10 12 14 15 15 16 17 18 20 25 31 33 35 33 26 18 11 8 11 10 12 17 21 19 17 17 16 16 15 15 17
Height
5617 5621 5630 5635 5637 5639 5641 5643 5645 5650 5650 5652 5664 5664 5666 5669 5670 5671 5674 5677 5679 5683 5685 5685 5686 5687 5686 5686 5685 5685 5686 5685 5684 5683 5682 5681 5681 5680 5678 5678 5676 5676 5676 5675
5607 5611 5615 5624 5628 5630 5632 5633 5635 5638 5642 5646 5651 5657 5658 5661 5662 5663 5666 5667 5670 5673 5675 5677 5678 5677 5678 5678 5678 5677 5677 5677 5675 5674 5673 5673 5671 5670 5670 5670 5669 5667 5667 5666
5599 5603 5603 5610 5621 5619 5622 5624 5626 5628 5631 5634 5638 5647 5649 5651 5653 5655 5656 5657 5660 5661 5666 5668 5669 5669 5668 5669 5669 5670 5670 5669 5667 5666 5665 5664 5662 5660 5660 5659 5658 5658 5657 5656
5592 5594 5595 5608 5606 5610 5608 5612 5616 5617 5619 5623 5628 5632 5642 5642 5645 5647 5649 5649 5652 5653 5654 5658 5659 5660 5661 5660 5660 5659 5657 5657 5658 5657 5655 5655 5654 5652 5650 5649 5648 5647 5645 5645
5584 5584 5590 5601 5601 5601 5597 5604 5604 5607 5609 5611 5614 5619 5628 5635 5634 5637 5639 5641 5643 5643 5645 5647 5648 5650 5651 5651 5651 5650 5648 5646 5646 5646 5645 5645 5645 5643 5641 5638 5638 5636 5635 5634
5579 5578 5582 5591 5590 5584 5581 5595 5598 5602 5600 5603 5605 5610 5618 5626 5629 5628 5631 5632 5634 5634 5635 5636 5639 5639 5640 5641 5640 5639 5638 5637 5636 5636 5635 5634 5634 5632 5630 5628 5627 5625 5623 5621
5569 5571 5580 5583 5577 5574 5577 5579 5581 5583 5590 5592 5595 5600 5603 5605 5615 5617 5619 5619 5622 5625 5627 5628 5629 5630 5630 5630 5630 5629 5628 5626 5625 5625 5625 5624 5623 5620 5617 5616 5614 5612 5610 5608
5561 5565 5571 5572 5571 5568 5565 5568 5568 5573 5577 5580 5584 5590 5594 5594 5600 5604 5607 5608 5609 5612 5615 5616 5618 5619 5619 5619 5619 5617 5616 5615 5614 5615 5614 5614 5612 5610 5606 5604 5602 5600 5598 5595
5556 5561 5562 5563 5563 5560 5558 5562 5561 5563 5565 5569 5573 5577 5582 5585 5586 5592 5595 5596 5598 5601 5603 5605 5606 5606 5607 5607 5606 5606 5605 5604 5603 5603 5602 5601 5599 5597 5595 5592 5589 5587 5584 5581
5546 5554 5554 5556 5556 5551 5554 5552 5551 5554 5556 5558 5563 5565 5570 5574 5577 5579 5583 5585 5587 5589 5592 5592 5592 5593 5594 5594 5594 5594 5592 5591 5590 5590 5588 5587 5585 5583 5580 5579 5576 5572 5569 5566
5539 5543 5544 5548 5545 5547 5547 5543 5541 5542 5548 5549 5552 5554 5558 5562 5565 5569 5572 5574 5576 5577 5578 5580 5581 5582 5583 5582 5581 5580 5579 5578 5577 5575 5573 5571 5570 5568 5565 5563 5560 5557 5553 5550
5529 5531 5535 5537 5538 5539 5540 5538 5534 5535 5538 5540 5539 5544 5549 5552 5556 5559 5562 5563 5564 5565 5567 5569 5570 5571 5571 5571 5570 5568 5566 5565 5563 5562 5559 5557 5555 5553 5550 5546 5543 5540 5536 5533
5516 5519 5524 5526 5529 5529 5530 5529 5527 5529 5529 5529 5528 5534 5539 5543 5545 5548 5550 5552 5553 5555 5556 5557 5558 5558 5557 5557 5557 5554 5552 5551 5549 5546 5544 5542 5540 5537 5534 5530 5525 5522 5518 5514
5505 5508 5511 5516 5519 5519 5520 5521 5520 5519 5521 5521 5520 5525 5529 5532 5535 5537 5539 5540 5541 5542 5543 5544 5545 5543 5542 5543 5541 5540 5538 5536 5534 5531 5528 5525 5522 5519 5516 5513 5510 5505 5501 5496
5498 5499 5502 5506 5509 5510 5511 5512 5513 5512 5514 5515 5515 5516 5519 5523 5525 5527 5527 5528 5529 5531 5531 5532 5534 5531 5529 5526 5526 5524 5523 5520 5518 5514 5512 5508 5504 5501 5498 5495 5491 5487 5482 5478
5490 5492 5494 5497 5500 5501 5502 5504 5505 5506 5504 5507 5509 5510 5511 5513 5513 5515 5517 5517 5518 5519 5519 5518 5519 5518 5516 5511 5508 5507 5505 5502 5499 5496 5493 5490 5487 5483 5480 5476 5472 5467 5461 5456
5484 5485 5487 5489 5493 5494 5495 5497 5498 5498 5498 5499 5500 5502 5503 5503 5504 5505 5506 5505 5505 5505 5504 5504 5503 5501 5497 5492 5493 5491 5488 5486 5483 5479 5476 5473 5469 5466 5461 5456 5450 5445 5439 5433
5479 5480 5480 5482 5485 5487 5487 5488 5489 5490 5491 5492 5493 5495 5494 5493 5494 5494 5495 5494 5493 5493 5492 5493 5488 5486 5484 5481 5478 5475 5472 5469 5467 5463 5459 5454 5450 5445 5440 5434 5429 5423 5416 5409
5473 5475 5476 5476 5477 5478 5478 5480 5482 5482 5482 5483 5484 5484 5484 5484 5484 5484 5482 5480 5479 5478 5477 5476 5474 5471 5468 5466 5463 5460 5457 5454 5450 5446 5441 5436 5430 5425 5420 5414 5408 5401 5394 5387
5468 5469 5470 5470 5470 5471 5471 5472 5472 5472 5472 5472 5471 5472 5472 5472 5470 5468 5468 5467 5466 5463 5462 5460 5458 5456 5453 5450 5447 5444 5440 5435 5431 5427 5422 5417 5411 5405 5399 5393 5385 5378 5370 5363
5463 5463 5463 5463 5463 5462 5462 5462 5462 5463 5464 5464 5462 5461 5460 5460 5459 5457 5455 5454 5453 5450 5448 5445 5442 5439 5436 5433 5429 5426 5421 5417 5412 5407 5402 5396 5390 5383 5376 5369 5361 5353 5345 5337
5457 5456 5455 5455 5454 5454 5454 5453 5453 5452 5452 5452 5450 5449 5449 5448 5446 5444 5442 5441 5439 5436 5433 5430 5427 5423 5420 5416 5412 5407 5402 5397 5392 5386 5381 5374 5367 5360 5352 5344 5336 5327 5319 5310
5448 5448 5447 5446 5446 5445 5444 5443 5443 5443 5442 5441 5440 5439 5437 5436 5434 5431 5430 5428 5425 5421 5417 5415 5411 5407 5402 5398 5393 5388 5382 5377 5371 5364 5357 5350 5342 5334 5326 5318 5309 5301 5293 5285
5443 5442 5441 5440 5440 5440 5439 5437 5436 5435 5434 5432 5430 5427 5424 5422 5420 5418 5415 5412 5408 5404 5401 5397 5392 5388 5383 5378 5372 5366 5360 5353 5346 5339 5332 5324 5317 5309 5301 5294 5286 5279 5271 5264
5437 5437 5436 5435 5433 5432 5430 5428 5427 5425 5422 5420 5417 5414 5411 5408 5405 5402 5399 5395 5391 5386 5381 5376 5371 5366 5360 5354 5347 5341 5334 5328 5321 5314 5308 5302 5295 5288 5281 5274 5266 5259 5251 5244
5431 5430 5428 5427 5425 5423 5420 5417 5414 5411 5407 5404 5401 5397 5394 5390 5387 5382 5378 5373 5368 5363 5357 5352 5347 5341 5335 5330 5324 5319 5313 5308 5302 5296 5290 5283 5276 5269 5262 5255 5248 5241 5234 5227
5423 5420 5418 5415 5412 5409 5405 5402 5398 5394 5390 5386 5382 5378 5373 5369 5364 5359 5354 5349 5344 5339 5334 5329 5325 5320 5316 5311 5307 5302 5297 5292 5285 5279 5272 5265 5259 5253 5247 5240 5234 5227 5220 5212